Home > Weather > Mongomo > Past weeks

Flag for Equatorial Guinea Weather for the Past 2 Weeks in Mongomo, Equatorial Guinea

Now
72 °F

Partly cloudy.


Feels Like: 65 °F
Forecast: 70 / 83 °F
Wind: 2 mph from West

Location: Yaounde Airport

Current Time: May 3, 2016 at 6:21:54 AM

Latest Report: May 3, 2016 at 4:00 AM


Visibility: 4 mi

Pressure: 29.98 "Hg (27.85 "Hg at 638m altitude)

Humidity: 100%

Dew Point: 72 °F

Location of MongomoLocation

Historic Weather in Mongomo — Graph

°F

Mongomo Temperature Yesterday

Maximum temperature yesterday: 86 °F (at 2:00 PM)
Minimum temperature yesterday: 70 °F (at 5:00 AM)
Average temperature yesterday: 76 °F

High & Low Weather Summary for the Past Weeks

 TemperatureHumidityPressure
High91 °F (Apr 22, 3:00 PM)100% (Apr 19, 3:00 AM)30.12 "Hg (Apr 19, 3:00 AM)
Low68 °F (Apr 19, 2:00 AM)46% (Apr 28, 5:00 PM)29.86 "Hg (Apr 23, 4:00 PM)
Average77 °F83%29.98 "Hg
* Reported Apr 18 4:00 AM — May 3 4:00 AM, Mongomo, Weather by CustomWeather, © 2016

Note: Actual official high and low records may vary slightly from our data, if they occured in-between our weather recording intervals... More about our weather records

Advertising

Mongomo Weather History for the Previous 24 Hours

Scroll right to see more
 ConditionsComfort  
Time TempWeatherWind HumidityBarometerVisibility
4:00 AM
Tue, May 3
72 °FPartly cloudy.2 mph100%29.98 "Hg4 mi
3:00 AM72 °FPartly cloudy.3 mph94%29.95 "Hg4 mi
2:00 AM72 °FFog.3 mph100%29.95 "Hg1 mi
12:00 AM72 °FClear.No wind94%29.98 "Hg5 mi
11:00 PM
Mon, May 2
72 °FClear.No wind94%30.01 "Hg5 mi
10:00 PM75 °FThunderstorms. Passing clouds.3 mph89%30.01 "HgN/A
9:00 PM73 °FThunderstorms. Passing clouds.No wind94%29.98 "HgN/A
8:00 PM73 °FThunderstorms. Passing clouds.No wind94%29.95 "HgN/A
7:00 PM75 °FThunderstorms. Passing clouds.1 mph89%29.92 "HgN/A
6:00 PM79 °FPassing clouds.1 mph79%29.89 "HgN/A
5:00 PM82 °FPassing clouds.3 mph66%29.89 "HgN/A
3:00 PM84 °FPassing clouds.1 mph62%29.89 "HgN/A
2:00 PM86 °FScattered clouds.2 mph59%29.89 "HgN/A
1:00 PM82 °FScattered clouds.2 mph66%29.95 "HgN/A
12:00 PM82 °FScattered clouds.2 mph66%29.95 "HgN/A
11:00 AM79 °FScattered clouds.3 mph74%29.98 "HgN/A
10:00 AM77 °FScattered clouds.2 mph79%30.01 "HgN/A
9:00 AM75 °FScattered clouds.2 mph83%30.01 "HgN/A
8:00 AM72 °FThunderstorms. Scattered clouds.1 mph94%30.01 "HgN/A
7:00 AM70 °FThunderstorms. Scattered clouds.2 mph94%30.01 "Hg2 mi
6:00 AM70 °FThunderstorms. Partly cloudy.2 mph94%30.01 "Hg2 mi
Weather by CustomWeather, © 2016

See weather overviewHow to use our weather pages